{"data":{"norad_id":64558,"epoch":"2026-09-21T21:08:46.366944Z","epoch_age_seconds":62263,"freshness":"FRESH","line1":"1 64558U 25135AG  26264.88109221  .00009575  00000+0  33904-3 0  9992","line2":"2 64558  97.4817  21.7463 0005176 166.8462 193.2914 15.29333682 69625","mean_motion":15.29333682,"eccentricity":0.0005176,"inclination_deg":97.4817,"raan_deg":21.7463,"arg_perigee_deg":166.8462,"mean_anomaly_deg":193.2914,"bstar":0.00033904,"rev_number":6962,"period_min":94.158653336977,"perigee_km":474.25432526614,"apogee_km":481.35159431251,"semimajor_km":6855.9399597893,"source":"CELESTRAK","updated_at":"2026-09-22T09:00:29.846909Z"}}